TimeEST,TemperatureF,Dew PointF,Humidity,Sea Level PressureIn,VisibilityMPH,Wind Direction,Wind SpeedMPH,Gust SpeedMPH,PrecipitationIn,Events,Conditions,WindDirDegrees,DateUTC
12:54 AM,42.1,37.9,85,30.32,10.0,North,4.6,-,N/A,,Overcast,10,2012-11-11 05:54:00
1:54 AM,39.0,37.0,93,30.32,10.0,NNE,5.8,-,N/A,,Clear,20,2012-11-11 06:54:00
2:54 AM,39.0,37.0,93,30.33,10.0,NE,3.5,-,N/A,,Clear,40,2012-11-11 07:54:00
3:54 AM,36.0,35.1,97,30.34,10.0,North,5.8,-,N/A,,Clear,360,2012-11-11 08:54:00
4:54 AM,36.0,34.0,93,30.35,10.0,NNE,5.8,-,N/A,,Clear,20,2012-11-11 09:54:00
5:54 AM,36.0,33.1,89,30.37,10.0,North,4.6,-,N/A,,Clear,350,2012-11-11 10:54:00
6:54 AM,33.1,33.1,100,30.40,6.0,North,4.6,-,N/A,,Clear,350,2012-11-11 11:54:00
7:54 AM,37.0,35.1,93,30.42,10.0,North,3.5,-,N/A,,Clear,350,2012-11-11 12:54:00
9:54 AM,50.0,37.9,63,30.42,10.0,NE,3.5,-,N/A,,Clear,40,2012-11-11 14:54:00
10:54 AM,57.0,35.1,44,30.40,10.0,Calm,Calm,-,N/A,,Clear,0,2012-11-11 15:54:00
11:54 AM,63.0,37.9,40,30.36,10.0,Variable,3.5,-,N/A,,Clear,0,2012-11-11 16:54:00
1:54 PM,69.1,36.0,30,30.30,10.0,SW,3.5,-,N/A,,Clear,230,2012-11-11 18:54:00
2:54 PM,68.0,35.1,30,30.30,10.0,Calm,Calm,-,N/A,,Clear,0,2012-11-11 19:54:00
3:54 PM,64.0,36.0,35,30.31,10.0,SE,6.9,-,N/A,,Clear,140,2012-11-11 20:54:00
4:54 PM,60.1,36.0,41,30.33,10.0,Calm,Calm,-,N/A,,Clear,0,2012-11-11 21:54:00
5:54 PM,57.9,35.1,42,30.35,10.0,ESE,3.5,-,N/A,,Clear,110,2012-11-11 22:54:00
6:54 PM,55.0,37.0,51,30.36,10.0,Calm,Calm,-,N/A,,Clear,0,2012-11-11 23:54:00
7:54 PM,53.1,37.0,55,30.35,10.0,Calm,Calm,-,N/A,,Clear,0,2012-11-12 00:54:00
8:54 PM,52.0,36.0,54,30.34,10.0,Calm,Calm,-,N/A,,Clear,0,2012-11-12 01:54:00
9:54 PM,52.0,37.0,57,30.33,10.0,Calm,Calm,-,N/A,,Clear,0,2012-11-12 02:54:00
10:54 PM,54.0,37.0,53,30.31,10.0,South,4.6,-,N/A,,Clear,170,2012-11-12 03:54:00
11:54 PM,52.0,36.0,54,30.30,10.0,SE,3.5,-,N/A,,Clear,140,2012-11-12 04:54:00